Location: 5810 Zion Rd, Cleves, OH 45002, USA
(39.1922°N, 84.7113°W)
Time: 03:34:45
(UTC-05:00)

Vanguard 3 - Pass Details

Date: 14 December 2019
Orbit: 508 x 3263 km, 33.3° (Epoch: 19 January)

Event Time Altitude Azimuth Distance (km) Brightness Sun altitude
Rises 06:52:21 0° 226° (SW) 3,086 9.9 -11.0°
Reaches altitude 10° 06:54:29 10° 216° (SW) 2,378 9.4 -10.6°
Maximum altitude 06:59:34 35° 151° (SSE) 1,688 9.3 -9.7°
Drops below altitude 10° 07:07:48 10° 91° (E) 3,905 11.9 -8.2°
Sets 07:12:21 0° 84° (E) 5,401 12.5 -7.4°
